www.pogodaiklimat.ru

Погода и климат >> Архив погоды >> Мексика >> Arriaga


ПОГОДА в Arriaga

  • Прогноз погоды в Arriaga
  • Монитор погоды в Arriaga
  • Климат города

АРХИВ ПОГОДЫ в Arriaga

Время (UTC), дата Ветер
(напр.,м/с)
 
Видим.   Явления Облачность Т
(С)
Тd
(С)
f
(%)
Тe
(С)
Тes
(С)
Комфортность P
(гПа)
Po
(гПа)
Тmin
(С)
Tmax
(С)
R
(мм)
R24
(мм)
S
(см)
18 17.09 С 1 4000 м 3/3 840 м
[Cu med, cong]
+35.0 +29.9 75 +62 +78 опасность
перегрева
1009.5 1004.0 +23.0 +36.6
21 17.09 штиль 0 5000 м 5/5 840 м
[Sc]
+34.2 +28.0 70 +55 +63 опасность
перегрева
1007.2 1001.8
00 18.09 штиль 0 4000 м 4/0 2000 м
[As trans]
+30.2 +28.9 93 +53 +53 опасность
перегрева
1007.7 1002.3 +23.0 +38.4
03 18.09 штиль 0 3000 м ясно +28.0 +26.4 91 +43 +43 опасность
перегрева
1009.8 1004.4
06 18.09 штиль 0 2000 м ясно +28.0 +26.1 89 +42 +42 опасность
перегрева
1010.7 1005.2 +38.4
09 18.09 С 1 2000 м ясно +29.8 +27.7 89 +49 +49 опасность
перегрева
1009.0 1003.5
12 18.09 С 2 4000 м 6/3 840 м
[Sc diur, vesp As trans]
+29.2 +27.4 90 +47 +47 опасность
перегрева
1010.5 1005.0 +24.4 +38.4
15 18.09 штиль 0 5000 м 8/3 840 м
[Cu hum Cs]
+30.4 +28.1 88 +51 +58 опасность
перегрева
1011.8 1006.3
18 18.09 С 2 4000 м 1/1 840 м
[Cu med, cong]
+34.8 +28.4 70 +57 +75 опасность
перегрева
1009.3 1003.8 +24.4 +38.6
21 18.09 С 1 5000 м 5/5 800 м
[Cu med, cong]
+36.4 +30.2 71 +64 +71 опасность
перегрева
1007.1 1001.6
00 19.09 СВ 1 5000 м 4/4 600 м
[Cu hum]
+30.8 +26.4 77 +47 +47 опасность
перегрева
1008.0 1002.6 +24.4 +38.6
03 19.09 С 1 1000 м 4/4 800 м
[Cu hum]
+30.9 +25.7 74 +46 +46 опасность
перегрева
1008.9 1003.5
06 19.09 С 1 100 м 3/3 800 м
[Cu hum]
+30.0 +26.0 79 +45 +45 опасность
перегрева
1009.5 1004.1 +38.6
09 19.09 С 1 100 м ясно +29.9 +26.5 82 +46 +46 опасность
перегрева
1008.5 1003.0
12 19.09 С 1 1000 м ясно +28.9 +25.0 80 +42 +42 опасность
перегрева
1009.4 1003.9 +25.0
15 19.09 С 1 5000 м 4/0 2000 м
[Ac lent]
+29.9 +26.5 82 +46 +53 опасность
перегрева
1011.6 1006.1
18 19.09 С 1 5000 м 6/0 2000 м
[Ac lent]
+32.8 +28.9 80 +56 +68 опасность
перегрева
1010.5 1005.0 +25.0 +35.0
21 19.09 штиль 0 4000 м 8/4 840 м
[Sc As trans]
+33.6 +29.0 77 +57 +63 опасность
перегрева
1007.9 1002.4
00 20.09 штиль 0 4000 м 8/3 600 м
[Cu hum As trans]
+31.4 +27.8 81 +51 +51 опасность
перегрева
1007.2 1001.8 +25.0 +35.2
03 20.09 штиль 0 3000 м дождь 4/0
[As op]
+26.6 +25.8 95 +39 +39 очень
душно
1010.6 1005.1 3
06 20.09 штиль 0 2000 м дождь 4/0
[Cs]
+28.4 +26.6 90 +44 +44 опасность
перегрева
1010.4 1004.9 3
09 20.09 штиль 0 2000 м ясно +26.6 +25.0 91 +38 +38 очень
душно
1009.1 1003.6
15 20.09 С 2 5000 м 8/4 840 м
[Cu hum Ac lent]
+29.6 +25.2 77 +43 +45 опасность
перегрева
1011.2 1005.7
18 20.09 штиль 0 5000 м 4/4 840 м
[Sc diur, vesp]
+33.6 +28.7 76 +57 +73 опасность
перегрева
1010.0 1004.5 +24.0 +35.0
21 20.09 штиль 0 5000 м 4/4 800 м
[Cu hum]
+36.8 +28.3 62 +58 +67 опасность
перегрева
1007.0 1001.5
00 21.09 штиль 0 5000 м 4/4 600 м
[Cu hum]
+33.6 +28.2 73 +55 +55 опасность
перегрева
1007.6 1002.2 +24.0 +38.4
03 21.09 С 2 100 м 5/5 800 м
[Sc diur, vesp]
+31.2 +25.3 71 +45 +45 опасность
перегрева
1009.9 1004.5
06 21.09 С 2 100 м 4/0
[Ac As]
+30.6 +26.1 77 +46 +46 опасность
перегрева
1010.6 1005.2 +38.4
09 21.09 С 2 100 м 5/0
[Ac As]
+29.6 +24.8 75 +42 +42 опасность
перегрева
1004.2 1003.8
15 21.09 С 2 5000 м 5/0
[Cs]
+30.4 +24.7 72 +43 +51 опасность
перегрева
1010.9 1005.4
18 21.09 С 2 5000 м 6/0
[Cs]
+35.2 +29.0 70 +58 +76 опасность
перегрева
1004.8 1004.3 +25.0 +36.5
21 21.09 С 1 3000 м 6/6 840 м
[Cb cap]
+33.4 +28.8 77 +56 +62 опасность
перегрева
1008.4 1003.0
00 22.09 штиль 0 2000 м слабый дождь 10/3 600 м
[Sc As trans]
+27.6 +26.0 91 +41 +41 опасность
перегрева
1009.1 1003.7 5
03 22.09 Ю 2 1000 м 6/0 2000 м
[As trans]
+28.0 +25.6 87 +41 +41 опасность
перегрева
1010.8 1005.3
06 22.09 штиль 0 1000 м 5/0 2000 м
[Ac trans]
+26.6 +25.5 94 +39 +39 очень
душно
1010.8 1005.4 +23.8 +37.0
09 22.09 С 3 1000 м 4/0
[As trans]
+26.8 +25.9 95 +40 +40 очень
душно
1008.7 1003.2
12 22.09 С 3 1000 м 4/0 2000 м
[Ac trans]
+27.8 +24.0 80 +39 +39 очень
душно
1008.3 1002.8 +24.0 +37.0
18 22.09 С 1 3000 м 5/1 840 м
[Cu med, cong Cs]
+33.6 +29.5 79 +59 +78 опасность
перегрева
1010.1 1004.6 +24.0 +35.2
21 22.09 Ю 1 5000 м 5/5 800 м
[Cu med, cong]
+33.4 +29.5 80 +59 +65 опасность
перегрева
1007.7 1002.2
00 23.09 штиль 0 3000 м слабая морось {дождь} 9/9 600 м
[Cb cap]
+25.4 +23.5 89 +34 +34 очень
душно
1008.6 1003.2 18
03 23.09 штиль 0 1000 м {морось} 5/5 800 м
[Sc diur, vesp]
+24.9 +21.6 82 +32 +32 очень
душно
1009.5 1004.1 2
06 23.09 штиль 0 1000 м слабая морось 9/9 800 м
[Sc]
+23.0 +20.1 84 +30 +30 очень
душно
1012.2 1006.6 +36.8
09 23.09 С 1 1000 м {морось} 6/6 800 м
[Sc]
+24.9 +21.2 80 +31 +31 очень
душно
1008.9 1003.3 4
12 23.09 С 1 1000 м 6/0 2000 м
[Ac As]
+27.2 +23.2 79 +37 +37 очень
душно
1008.3 1002.7 +23.5 +36.8
15 23.09 С 1 5000 м 6/0 2000 м
[Ac lent]
+29.9 +25.1 75 +43 +48 опасность
перегрева
1009.1 1003.6
18 23.09 С 1 5000 м ясно +32.0 +27.6 78 +52 +75 опасность
перегрева
1009.2 1003.6 +23.5 +34.0
21 23.09 С 3 4000 м 3/3 840 м
[Cu med, cong]
+34.2 +26.6 65 +51 +58 опасность
перегрева
1006.0 1000.6
00 24.09 С 2 1000 м 10/5 600 м
[Sc Ac lent]
+29.0 +26.6 87 +45 +45 опасность
перегрева
1008.1 1002.7 +22.8 +36.2
03 24.09 штиль 0 1000 м 6/0 2000 м
[As trans]
+27.2 +25.9 93 +41 +41 опасность
перегрева
1009.7 1004.3
06 24.09 С 1 1000 м слабый дождь 10/1 600 м
[Cb cap As op]
+26.2 +25.4 95 +38 +38 очень
душно
1010.9 1005.5 2
09 24.09 штиль 0 1000 м слабая морось 10/3 840 м
[Sc As trans]
+25.0 +24.2 95 +34 +34 очень
душно
1010.2 1004.7
12 24.09 штиль 0 2000 м слабая морось 10/0 2000 м
[As trans]
+25.0 +23.4 91 +34 +34 очень
душно
1010.4 1004.8 0.2
15 24.09 С 1 3000 м 4/0 2000 м
[Ac trans]
+28.6 +24.0 76 +40 +47 очень
душно
1011.2 1005.7

 

Местоположение метеостанции Arriaga (Мексика): широта 16.23 долгота -93.90 высота над уровнем моря 48 м.

В архиве по умолчанию представлена погода в Arriaga за последнюю неделю. Архивные данные за месяц целиком и за предыдущие месяцы, начиная с января 2011 года, Вы можете получить, выбрав интересующий диапазон дат из раскрывающегося списка и нажав кнопку "Ввод!".


*Определитесь, кто Вы:
робот инопланетянин человек

Внимание! Время в таблицах - всемирное. Для получения местного времени необходимо прибавить поправку, которая в Arriaga равна -6 ч.

Смотрите также архив погоды в соседних городах и на ближайших метеорологических станциях:

Погода в Tuxtla Gutierrez (Мексика) (100 км)
Погода в Salina Cruz (Мексика) (137 км)
Погода в Sn. Cristobal Las Casas (Мексика) (147 км)
Погода в Comitan (Мексика) (189 км)
Погода в Coatzacoalcos (Мексика) (218 км)
Погода в Villahermosa (Мексика) (220 км)
Погода в Tapachula City (Мексика) (229 км)
Погода в Huehuetenango (Гватемала) (280 км)
Погода в Puerto Angel (Мексика) (283 км)
Погода в Oaxaca (Мексика) (313 км)

Пояснения к столбцам:

Ветер - указаны скорость ветра в м/с - средняя за 10 мин, порывы в срок и между сроками (в фигурных скобках) и направление, откуда дует ветер: С - северный, СВ - северо-восточный, В - восточный, ЮВ - юго-восточный, Ю - южный, ЮЗ - юго-западный, З - западный, СЗ - северо-западный.
Видимость - горизонтальная дальность видимости в метрах или километрах. При видимости от 1 до 10 км при отсутствии осадков обычно наблюдается дымка, при ухудшении видимости до 1 км и менее - туман. В сухую погоду видимость может ухудшаться дымом, пылью или мглою.
Явления - указаны атмосферные явления, наблюдавшиеся в срок или в последний час перед сроком; фигурными скобками обозначены явления, наблюдавшиеся между сроками (за 1-3 часа до срока); квадратными скобками обозначены град или гололедные отложения с указанием их диаметра в мм.
Облачность - указаны через наклонную черту общая и нижняя облачность в баллах и высота нижней границы облаков в метрах; квадратными скобками обозначены формы облаков: Ci - перистые, Cs - перисто-слоистые, Cc - перисто-кучевые, Ac - высококучевые, As - высокослоистые, Sc - слоисто-кучевые, Ns - слоисто-дождевые, Cu - кучевые, Cb - кучево-дождевые. Подробнее классификацию облаков см. в Атласе облаков (PDF).
T - Температура воздуха - температура, измеренная на высоте 2 м над землей.
Td - Температура точки росы - температура, при понижении до которой содержащийся в воздухе водяной пар достигнет насыщения.
f - Относительная влажность воздуха - влажноcть воздуха, измеренная на высоте 2 м над землей.
Te - Эффективная температура - температура, которую ощущает одетый по сезону человек в тени. Характеристика душности погоды. При расчете учитывается влияние влажности воздуха и скорости ветра на теплоощущения человека.
Tes - Эффективная температура на солнце - температура, которую ощущает человек, с поправкой на солнечный нагрев. Характеристика знойности погоды. Зависит от высоты солнца над горизонтом, облачности и скорости ветра. Ночью, в пасмурную погоду, а также при ветре 12 м/с и более поправка равна нулю.
P - Атмосферное давление - приведенное к уровню моря атмосферное давление.
Po - Атмосферное давление - измеренное на уровне метеостанции атмосферное давление.
Tmin - Минимальная температура - минимум температуры воздуха на высоте 2 м над землей.
Tmax - Максимальная температура - максимум температуры воздуха на высоте 2 м над землей.
R - Количество осадков - Количество выпавших осадков за период времени, мм. При наведении курсора мыши на число - период времени, за который выпало указанное количество осадков.
R24 - Количество осадков - Количество выпавших осадков за 24 часа, мм.
S - Снежный покров - Высота снежного покрова, см. При наведении курсора мыши на число - состояние снежного покрова и степень покрытия местности в баллах.